Content
SEND FEEDBACK

Daily
Averages
Monthly
Summary
United States of America

CRESTED BUTTE, COLORADO


Home > North America > United States > Colorado
Elevation: 9277 feet     Latitude: 38 52N     Longitude: 106 58W

WEATHER
 
SELECT A DAY
Number of Records: 447,064;   Date Range: 1/1/95 - 7/2/14
 
SHARE

PRINT THIS DATA

[ ← Previous Day ]
WEATHER ALMANAC - AUGUST 14, 2013
[ Next Day → ]
[ °C ]   °F
Weather ElementAverageHighLow
Temperature57.2 °F75.2 °F (2:15 pm)37.4 °F (6:55 am)
Dewpoint34.5 °F42.8 °F (12:35 pm)30.2 °F (2:35 pm)
Humidity48.4 %81 % (4:15 am)19 % (3:15 pm)
Barometer30.42 in30.49 in (7:15 am)30.35 in (4:15 pm)
Wind Speed4.5 mph18.4 mph (3:35 pm)
Wind Gust26.5 mph (5:55 pm)
Weather ElementAverage
Visibility10 mi
Wind DirectionSSE (150.3 °)

Weather ElementTotal
Precipitation---
Heating Degree Days8.7 (Base 65)
Growing Degree Days6.3 (Base 50)
Averaged from 69 records on August 14, 2013
WEATHER CONDITIONS BREAKOUT
WIND DIRECTION BREAKOUT
WEATHER BY HOUR - AUGUST 14, 2013
[ °C ]   °F
Local TimeTemperatureDewpointHumidityBarometerVisibilityWind DirectionWind SpeedGust SpeedPrecipitationEventsConditions
12:35 AM51.8 °F37.4 °F58 %30.43 in10.0 miCalmClear
12:55 AM50.0 °F37.4 °F62 %30.44 in10.0 miCalmClear
1:15 AM46.4 °F37.4 °F71 %30.44 in10.0 miCalmClear
1:35 AM48.2 °F37.4 °F66 %30.44 in10.0 miCalmClear
1:55 AM46.4 °F35.6 °F66 %30.44 in10.0 miNNW (340°)3.5 mphClear
2:15 AM46.4 °F35.6 °F66 %30.45 in10.0 miCalmClear
2:35 AM46.4 °F37.4 °F71 %30.45 in10.0 miCalmClear
2:55 AM44.6 °F35.6 °F71 %30.45 in10.0 miCalmClear
3:15 AM44.6 °F35.6 °F71 %30.45 in10.0 miNorth (350°)4.6 mphClear
3:35 AM42.8 °F35.6 °F76 %30.46 in10.0 miCalmClear
3:55 AM44.6 °F35.6 °F71 %30.46 in10.0 miCalmClear
4:15 AM39.2 °F33.8 °F81 %30.46 in10.0 miEast (100°)4.6 mphClear
4:35 AM41.0 °F33.8 °F76 %30.46 in10.0 miENE (60°)3.5 mphClear
4:55 AM42.8 °F35.6 °F76 %30.46 in10.0 miCalmClear
5:15 AM41.0 °F35.6 °F81 %30.46 in10.0 miCalmClear
5:35 AM39.2 °F33.8 °F81 %30.46 in10.0 miENE (70°)3.5 mphClear
5:55 AM39.2 °F33.8 °F81 %30.47 in10.0 miNorth (350°)4.6 mphClear
6:15 AM39.2 °F33.8 °F81 %30.47 in10.0 miNorth (360°)3.5 mphClear
6:35 AM39.2 °F33.8 °F81 %30.48 in10.0 miCalmClear
6:55 AM37.4 °F32.0 °F81 %30.48 in10.0 miCalmClear
7:15 AM41.0 °F35.6 °F81 %30.49 in10.0 miCalmClear
7:35 AM42.8 °F35.6 °F76 %30.49 in10.0 miCalmClear
7:55 AM42.8 °F35.6 °F76 %30.49 in10.0 miCalmClear
8:15 AM46.4 °F37.4 °F71 %30.49 in10.0 miCalmClear
8:35 AM48.2 °F37.4 °F66 %30.49 in10.0 miCalmClear
8:55 AM50.0 °F37.4 °F62 %30.49 in10.0 miCalmClear
9:15 AM51.8 °F37.4 °F58 %30.48 in10.0 miCalmClear
9:35 AM53.6 °F37.4 °F54 %30.48 in10.0 miCalmClear
9:55 AM55.4 °F37.4 °F51 %30.48 in10.0 miCalmClear
10:15 AM59.0 °F37.4 °F45 %30.48 in10.0 miNNE (30°)3.5 mphClear
10:35 AM60.8 °F35.6 °F39 %30.47 in10.0 miNNE (20°)3.5 mphClear
10:55 AM62.6 °F37.4 °F39 %30.47 in10.0 miCalmScattered Clouds
11:15 AM60.8 °F37.4 °F42 %30.46 in10.0 miWSW (240°)3.5 mphScattered Clouds
11:35 AM62.6 °F37.4 °F39 %30.46 in10.0 miCalmMostly Cloudy
11:55 AM64.4 °F37.4 °F37 %30.45 in10.0 miSW (220°)5.8 mphScattered Clouds
12:15 PM64.4 °F39.2 °F40 %30.44 in10.0 miSW (230°)3.5 mphMostly Cloudy
12:35 PM64.4 °F42.8 °F45 %30.43 in10.0 miWest (270°)3.5 mphScattered Clouds
12:55 PM69.8 °F42.8 °F38 %30.42 in10.0 miSSE (150°)3.5 mphClear
1:55 PM73.4 °F35.6 °F25 %30.40 in10.0 miSSW (210°)6.9 mphClear
2:15 PM75.2 °F33.8 °F22 %30.38 in10.0 miSSW (200°)9.2 mphClear
2:35 PM73.4 °F30.2 °F20 %30.38 in10.0 miSW (230°)9.2 mphClear
2:55 PM73.4 °F30.2 °F20 %30.37 in10.0 miWSW (250°)4.6 mphPartly Cloudy
3:15 PM75.2 °F30.2 °F19 %30.37 in10.0 miNorth (350°)12.7 mph19.6 mphMostly Cloudy
3:35 PM73.4 °F32.0 °F22 %30.36 in10.0 miNorth (10°)18.4 mphMostly Cloudy
3:55 PM75.2 °F32.0 °F21 %30.36 in10.0 miNorth (360°)10.4 mphScattered Clouds
4:15 PM75.2 °F30.2 °F19 %30.35 in10.0 miNorth (360°)9.2 mphPartly Cloudy
4:35 PM75.2 °F30.2 °F19 %30.35 in10.0 miNorth (350°)9.2 mph19.6 mphPartly Cloudy
4:55 PM73.4 °F30.2 °F20 %30.35 in10.0 miNorth (350°)11.5 mph16.1 mphMostly Cloudy
5:15 PM75.2 °F32.0 °F21 %30.35 in10.0 miNNW (340°)17.3 mph25.3 mphScattered Clouds
5:35 PM73.4 °F32.0 °F22 %30.36 in10.0 miNorth (350°)12.7 mphClear
5:55 PM73.4 °F30.2 °F20 %30.36 in10.0 miNorth (360°)18.4 mph26.5 mphClear
6:15 PM73.4 °F30.2 °F20 %30.35 in10.0 miNorth (360°)12.7 mph23.0 mphClear
6:35 PM71.6 °F30.2 °F22 %30.35 in10.0 miNorth (350°)10.4 mph16.1 mphClear
6:55 PM71.6 °F30.2 °F22 %30.35 in10.0 miNorth (360°)10.4 mphClear
7:15 PM69.8 °F32.0 °F25 %30.35 in10.0 miNorth (360°)8.1 mphClear
7:35 PM69.8 °F32.0 °F25 %30.36 in10.0 miNNW (330°)8.1 mphClear
7:55 PM66.2 °F30.2 °F26 %30.36 in10.0 miNW (320°)8.1 mphClear
8:15 PM64.4 °F30.2 °F28 %30.37 in10.0 miNNW (340°)6.9 mphClear
8:35 PM64.4 °F33.8 °F32 %30.37 in10.0 miNorth (10°)4.6 mphClear
8:55 PM60.8 °F33.8 °F36 %30.38 in10.0 miNorth (350°)8.1 mphClear
9:15 PM59.0 °F33.8 °F39 %30.39 in10.0 miCalmClear
9:35 PM59.0 °F33.8 °F39 %30.40 in10.0 miNorth (10°)4.6 mphClear
9:55 PM57.2 °F33.8 °F41 %30.40 in10.0 miNorth (360°)9.2 mphClear
10:15 PM57.2 °F33.8 °F41 %30.41 in10.0 miNorth (350°)6.9 mphClear
10:35 PM57.2 °F33.8 °F41 %30.41 in10.0 miNorth (350°)4.6 mphClear
10:55 PM53.6 °F33.8 °F47 %30.41 in10.0 miCalmClear
11:15 PM51.8 °F33.8 °F50 %30.42 in10.0 miCalmClear
11:35 PM53.6 °F33.8 °F47 %30.42 in10.0 miNorth (10°)5.8 mphClear
11:55 PM48.2 °F35.6 °F62 %30.43 in10.0 miCalmClear
Hourly data recorded from KGUC, located miles away from Crested Butte, Colorado







STORIES FROM OUR PARTNERS